Find Starlink 37136

NORAD ID: 68347 Int'l Des: 2026-059 Owner: SPXS Country: US Constellation: starlink operational
LEOCIRCULAR

Current View

Loading 3D Globe...

About Starlink 37136

Starlink 37136 (NORAD 68347) is a starlink constellation satellite (v2 mini) launched Mar 22, 2026 by SPXS of US. It operates in LEO, CIRCULAR orbit with a mass of 575.00 kg.

About Starlink 37136

Description loading...

Upcoming Passes

Passes for default location (London). Set your location on the main map for personalized predictions.

Altitude History

Loading altitude history...

Two-Line Element Set

1 68347U 26059AC 26171.45168808 .00009149 00000-0 32056-3 0 9999
2 68347 53.1567 230.6039 0001060 90.7044 269.4079 15.30208872 13918
Epoch: Jun 20, 2026 • Age: 33 hours

Current Status

Altitude 475.4 km
Velocity 7.63 km/s
Sub-Earth Point 5.45°N, 21.46°E
Launch Date Mar 22, 2026
Age 0.2 years
Type internet

Technical Details

Classification Payload
Mass 575.00 kg
Dry Mass 530.00 kg
Total Mass 575.00 kg
Length 0.30 m
Diameter 4.10 m
Span 29.00 m
Shape Box + pan
Manufacturer SPXS
Bus Type Starlink V2MO
Phase Status In Orbit
Owner/State SPXS/US

Most Searched